Weather History for KHLG - April, 2013

Change the Weather History Date:

Tuesday, April 30, 2013

  Actual Average Record
Temperature  
Mean Temperature 62 °F 56 °F  
Max Temperature 73 °F 66 °F 83 °F (2012)
Min Temperature 50 °F 46 °F 39 °F (2008)
Degree Days  
Heating Degree Days 3 10  
Month to date heating degree days 388 420  
Since 1 July heating degree days 5286 5358  
Cooling Degree Days 0    
Month to date cooling degree days 20  
Year to date cooling degree days 20  
Growing Degree Days 12 (Base 50)    
Moisture  
Dew Point 51 °F    
Average Humidity 70    
Maximum Humidity 96    
Minimum Humidity 44    
Precipitation  
Precipitation 0.00 in 0.13 in 0.79 in (2014)
Month to date precipitation 2.12 3.08  
Sea Level Pressure  
Sea Level Pressure 30.10 in    
Wind  
Wind Speed 7 mph (East)    
Max Wind Speed 17 mph    
Max Gust Speed 23 mph    
Visibility 10 miles    
Events      
T = Trace of Precipitation, MM = Missing Value Source: NWS Daily Summary

Daily Weather History Graph

Daily Weather History Graph

Search for Another Location

Airport or City:

Trip Planner

Search our weather history database for the weather conditions in past years. The results will help you decide how hot, cold, wet, or windy it might be!

Date:

Astronomy

Apr. 30, 2013 Rise Set
Actual Time 6:23 AM EDT 8:16 PM EDT
Civil Twilight 5:53 AM EDT 8:46 PM EDT
Nautical Twilight 5:18 AM EDT 9:22 PM EDT
Astronomical Twilight 4:39 AM EDT 10:00 PM EDT
Moon 12:38 AM EDT (4/30) 10:50 AM EDT (4/30)
Length of Visible Light 14h 52m
Length of Day
13h 53m
Waning Gibbous, 70% of the Moon is Illuminated
Apr 30
Waning Gibbous
May 2
Last Quarter
May 9
New
May 18
First Quarter
May 25
Full

Hourly Weather History & Observations

Time (EDT) Temp. Dew Point Humidity Pressure Visibility Wind Dir Wind Speed Gust Speed Precip Events Conditions
12:53 AM 55.0 °F 51.1 °F 86% 30.03 in 10.0 mi ESE 4.6 mph - N/A   Partly Cloudy
1:53 AM 54.0 °F 51.1 °F 90% 30.04 in 10.0 mi ESE 5.8 mph - N/A   Clear
2:53 AM 55.0 °F 51.1 °F 86% 30.04 in 10.0 mi East 4.6 mph - N/A   Partly Cloudy
3:53 AM 54.0 °F 51.1 °F 90% 30.04 in 10.0 mi ESE 3.5 mph - N/A   Clear
4:53 AM 53.1 °F 52.0 °F 96% 30.06 in 7.0 mi East 4.6 mph - N/A   Clear
5:53 AM 53.1 °F 51.1 °F 93% 30.07 in 10.0 mi East 5.8 mph - N/A   Clear
6:53 AM 52.0 °F 50.0 °F 93% 30.09 in 10.0 mi East 4.6 mph - N/A   Clear
7:53 AM 54.0 °F 52.0 °F 93% 30.10 in 9.0 mi ESE 5.8 mph - N/A   Clear
8:53 AM 57.9 °F 53.1 °F 84% 30.12 in 10.0 mi SE 9.2 mph - N/A   Clear
9:53 AM 62.1 °F 53.1 °F 72% 30.12 in 10.0 mi ESE 8.1 mph - N/A   Clear
10:53 AM 64.9 °F 54.0 °F 68% 30.12 in 10.0 mi ESE 6.9 mph - N/A   Clear
11:53 AM 66.0 °F 52.0 °F 60% 30.12 in 10.0 mi ESE 5.8 mph - N/A   Mostly Cloudy
12:53 PM 69.1 °F 52.0 °F 54% 30.11 in 10.0 mi Calm Calm - N/A   Mostly Cloudy
1:53 PM 68.0 °F 52.0 °F 56% 30.11 in 10.0 mi ENE 4.6 mph - N/A   Overcast
2:53 PM 73.0 °F 51.1 °F 46% 30.10 in 10.0 mi Variable 5.8 mph - N/A   Clear
3:53 PM 71.1 °F 51.1 °F 49% 30.09 in 10.0 mi ENE 10.4 mph - N/A   Clear
4:53 PM 72.0 °F 50.0 °F 46% 30.09 in 10.0 mi East 5.8 mph - N/A   Partly Cloudy
5:53 PM 71.1 °F 48.9 °F 45% 30.09 in 10.0 mi East 9.2 mph - N/A   Clear
6:53 PM 71.1 °F 51.1 °F 49% 30.09 in 10.0 mi East 11.5 mph 20.7 mph N/A   Clear
7:53 PM 68.0 °F 50.0 °F 52% 30.11 in 10.0 mi East 13.8 mph 23.0 mph N/A   Clear
8:53 PM 64.9 °F 50.0 °F 58% 30.13 in 10.0 mi ESE 11.5 mph - N/A   Clear
10:53 PM 59.0 °F 48.9 °F 69% 30.17 in 10.0 mi ESE 12.7 mph - N/A   Clear
11:53 PM 57.0 °F 48.9 °F 74% 30.18 in 10.0 mi ESE 8.1 mph - N/A   Clear